GW5308 Weather Reports


Display with metric or nautical units.
time (UTC)temp
F
wind
direction
speed
MPH
gust
MPH
rain 1hr
in
rain 24hr
in
rain mn
in
humidity
%
barometer
mb
20260903213049 86 0 0.0 1.0 0.00 0.55 0.55 86 1012.3
20260903212526 86 40 0.0 2.0 0.00 0.55 0.55 87 1012.2
20260903212021 86 0 0.0 2.0 0.00 0.55 0.55 86 1012.1
20260903211541 86 0 0.0 2.0 0.00 0.55 0.55 87 1012.1
20260903211019 87 0 0.0 2.0 0.00 0.55 0.55 86 1012.0
20260903210520 87 0 0.0 2.0 0.00 0.55 0.55 86 1011.9
20260903210041 87 0 0.0 2.0 0.00 0.55 0.55 85 1012.0
20260903205523 87 0 0.0 2.0 0.00 0.55 0.55 85 1012.0
20260903205020 87 0 0.0 2.0 0.00 0.55 0.55 83 1012.0
20260903204541 88 0 0.0 1.0 0.00 0.55 0.55 85 1012.0
20260903204017 88 0 0.0 2.0 0.00 0.55 0.55 84 1012.1
20260903203520 88 0 0.0 2.0 0.00 0.55 0.55 85 1012.2
20260903203044 88 76 0.0 1.0 0.00 0.55 0.55 83 1012.2
20260903202520 88 0 0.0 1.0 0.00 0.55 0.55 82 1012.3
20260903202022 88 0 0.0 3.0 0.00 0.55 0.55 84 1012.5
20260903201535 88 0 0.0 3.0 0.00 0.55 0.55 83 1012.5
20260903201021 88 352 0.0 2.0 0.00 0.55 0.55 84 1012.6
20260903200520 88 0 0.0 2.0 0.00 0.55 0.55 86 1012.7
20260903200039 88 5 0.0 2.0 0.00 0.55 0.55 84 1012.7
20260903195519 88 0 0.0 3.0 0.00 0.55 0.55 87 1012.8
20260903195019 88 0 0.0 3.0 0.00 0.55 0.55 85 1012.9
20260903194538 88 4 0.0 2.0 0.00 0.55 0.55 83 1013.0
20260903194025 88 0 0.0 1.0 0.00 0.55 0.55 85 1013.0
20260903193521 87 0 0.0 2.0 0.00 0.55 0.55 88 1013.1
20260903193038 87 0 0.0 2.0 0.00 0.55 0.55 86 1013.2
20260903192520 87 0 0.0 2.0 0.00 0.55 0.55 86 1013.2
20260903192020 87 0 0.0 5.0 0.00 0.55 0.55 87 1013.3
20260903191544 87 0 2.0 5.0 0.00 0.55 0.55 85 1013.2
20260903191020 87 0 0.0 6.0 0.00 0.55 0.55 87 1013.3
20260903190520 87 322 1.0 6.0 0.00 0.55 0.55 86 1013.4
20260903190041 87 336 0.0 4.0 0.00 0.55 0.55 86 1013.5
20260903185519 87 8 0.0 3.0 0.00 0.56 0.55 86 1013.5
20260903185019 87 0 0.0 3.0 0.00 0.56 0.55 88 1013.6
20260903184538 86 8 0.0 4.0 0.00 0.56 0.55 88 1013.6
20260903184021 86 11 0.0 4.0 0.00 0.56 0.55 89 1013.6
20260903183520 86 120 1.0 4.0 0.00 0.56 0.55 88 1013.6
20260903183036 86 43 0.0 4.0 0.00 0.56 0.55 90 1013.6
20260903182521 86 0 0.0 4.0 0.00 0.56 0.55 91 1013.6
20260903182020 86 0 1.0 4.0 0.00 0.56 0.55 90 1013.7
20260903181540 86 276 0.0 2.0 0.00 0.56 0.55 89 1013.7
20260903181019 86 0 0.0 3.0 0.00 0.56 0.55 93 1013.8
20260903180519 85 0 0.0 3.0 0.00 0.56 0.55 93 1013.8
20260903180040 85 0 0.0 3.0 0.00 0.56 0.55 96 1013.9
20260903175519 84 0 0.0 2.0 0.00 0.56 0.55 98 1014.0
20260903175020 84 0 0.0 4.0 0.00 0.56 0.55 99 1014.0
20260903174539 84 0 0.0 4.0 0.00 0.56 0.55 99 1014.0
20260903174020 84 0 0.0 0.0 0.00 0.56 0.55 100 1014.1
20260903173521 84 0 0.0 0.0 0.00 0.56 0.55 99 1014.1
20260903173038 84 0 0.0 0.0 0.00 0.56 0.55 100 1014.1
20260903172518 83 0 0.0 0.0 0.00 0.56 0.55 100 1014.1
20260903172019 83 0 0.0 0.0 0.00 0.56 0.55 100 1014.2
20260903171545 83 0 0.0 0.0 0.00 0.56 0.55 100 1014.3
20260903171019 82 0 0.0 0.0 0.00 0.56 0.55 100 1014.3
20260903170520 82 0 0.0 0.0 0.00 0.56 0.55 100 1014.3
20260903170047 82 0 0.0 0.0 0.00 0.56 0.55 100 1014.3
20260903165519 81 0 0.0 0.0 0.00 0.56 0.55 100 1014.3
20260903165019 81 0 0.0 0.0 0.00 0.56 0.55 100 1014.5
20260903164542 81 0 0.0 0.0 0.00 0.56 0.55 100 1014.6
20260903164017 81 0 0.0 0.0 0.00 0.56 0.55 100 1014.7
20260903163521 81 0 0.0 0.0 0.00 0.56 0.55 100 1015.0
20260903163054 81 0 0.0 0.0 0.00 0.56 0.55 100 1015.0
20260903162520 81 0 0.0 1.0 0.00 0.56 0.55 100 1015.0
20260903162024 80 0 0.0 1.0 0.00 0.56 0.55 100 1015.1
20260903161542 81 269 0.0 1.0 0.01 0.56 0.55 100 1015.0
20260903161019 81 0 0.0 0.0 0.03 0.56 0.55 100 1015.0
20260903160518 80 0 0.0 2.0 0.04 0.56 0.55 100 1014.9
20260903160041 80 0 0.0 3.0 0.04 0.56 0.55 100 1014.8
20260903155518 80 0 0.0 3.0 0.06 0.57 0.55 100 1014.6
20260903155018 80 0 0.0 3.0 0.06 0.57 0.55 100 1014.7
20260903154538 80 0 0.0 2.0 0.06 0.57 0.55 100 1014.6
20260903154019 80 0 0.0 2.0 0.08 0.57 0.55 100 1014.6
20260903153524 80 0 0.0 1.0 0.12 0.57 0.55 100 1014.6
20260903153038 81 0 0.0 1.0 0.23 0.57 0.55 100 1014.6
20260903152520 80 0 0.0 1.0 0.37 0.57 0.55 100 1014.5
20260903152019 80 0 0.0 1.0 0.42 0.57 0.55 100 1014.5
20260903151542 79 0 0.0 1.0 0.52 0.55 0.52 100 1014.7
20260903151019 79 334 0.0 1.0 0.52 0.54 0.52 100 1014.9
20260903150521 79 0 0.0 1.0 0.51 0.52 0.51 100 1014.9
20260903150042 78 0 0.0 1.0 0.50 0.52 0.50 100 1014.8
20260903145517 78 0 0.0 1.0 0.49 0.57 0.49 100 1014.8
20260903145023 78 0 0.0 0.0 0.49 0.57 0.49 100 1014.8
20260903144538 78 0 0.0 0.0 0.49 0.57 0.49 100 1014.8
20260903144021 78 0 0.0 1.0 0.47 0.55 0.47 100 1014.7
20260903143519 79 0 0.0 2.0 0.41 0.49 0.41 99 1014.7
20260903143036 81 9 0.0 2.0 0.29 0.37 0.29 96 1014.7
20260903142526 82 0 0.0 1.0 0.17 0.25 0.17 97 1014.7
20260903142019 83 266 0.0 1.0 0.12 0.20 0.12 94 1014.8
20260903141541 83 0 0.0 0.0 0.00 0.08 0.00 92 1014.7
20260903141018 84 0 0.0 0.0 0.00 0.08 0.00 93 1014.6
20260903140523 84 0 0.0 0.0 0.00 0.08 0.00 91 1014.6
20260903140045 84 0 0.0 0.0 0.00 0.08 0.00 90 1014.5
20260903135519 85 0 0.0 0.0 0.00 0.08 0.00 91 1014.5
20260903135019 85 0 0.0 0.0 0.00 0.08 0.00 90 1014.4
20260903134538 85 0 0.0 0.0 0.00 0.08 0.00 92 1014.4
20260903134022 84 0 0.0 2.0 0.00 0.08 0.00 92 1014.4
20260903133521 84 0 0.0 3.0 0.00 0.08 0.00 92 1014.4
20260903133040 84 0 0.0 3.0 0.00 0.08 0.00 92 1014.4
20260903132522 84 0 0.0 3.0 0.00 0.08 0.00 93 1014.4
20260903132019 83 4 0.0 1.0 0.00 0.08 0.00 94 1014.4
20260903131541 83 0 0.0 2.0 0.00 0.08 0.00 95 1014.3
20260903131020 83 0 0.0 2.0 0.00 0.08 0.00 97 1014.4
20260903130520 82 0 0.0 4.0 0.00 0.08 0.00 99 1014.4
20260903130040 81 0 0.0 4.0 0.00 0.08 0.00 100 1014.3
20260903125525 81 38 1.0 4.0 0.00 0.08 0.00 100 1014.2
20260903125016 80 0 0.0 0.0 0.00 0.08 0.00 100 1014.2
20260903124538 79 0 0.0 0.0 0.00 0.08 0.00 100 1014.2
20260903124020 79 0 0.0 0.0 0.00 0.08 0.00 100 1014.2
20260903123525 79 0 0.0 0.0 0.00 0.08 0.00 100 1014.2
20260903123040 78 0 0.0 0.0 0.00 0.08 0.00 100 1014.3
20260903122519 78 0 0.0 0.0 0.00 0.08 0.00 100 1014.4
20260903122020 78 0 0.0 0.0 0.00 0.08 0.00 100 1014.4
20260903121549 77 0 0.0 0.0 0.00 0.08 0.00 100 1014.4
20260903121020 77 0 0.0 0.0 0.00 0.08 0.00 100 1014.3
20260903120519 77 0 0.0 0.0 0.00 0.08 0.00 100 1014.3
20260903120048 76 0 0.0 0.0 0.00 0.08 0.00 100 1014.1
20260903115517 76 0 0.0 0.0 0.00 0.08 0.00 100 1014.2
20260903115019 75 0 0.0 0.0 0.00 0.08 0.00 100 1014.1
20260903114550 75 0 0.0 0.0 0.00 0.08 0.00 100 1014.0
20260903114020 75 0 0.0 0.0 0.00 0.08 0.00 100 1013.9
20260903113521 75 0 0.0 0.0 0.00 0.08 0.00 100 1013.9
20260903113041 75 0 0.0 0.0 0.00 0.08 0.00 100 1013.9
20260903112518 75 0 0.0 0.0 0.00 0.08 0.00 100 1013.8
20260903112020 74 0 0.0 0.0 0.00 0.08 0.00 100 1013.6
20260903111541 74 0 0.0 0.0 0.00 0.08 0.00 100 1013.5
20260903111018 74 0 0.0 0.0 0.00 0.08 0.00 100 1013.4
20260903110519 74 0 0.0 0.0 0.00 0.08 0.00 100 1013.4
20260903110035 74 0 0.0 0.0 0.00 0.08 0.00 100 1013.3
20260903105520 74 0 0.0 0.0 0.00 0.08 0.00 100 1013.3
20260903105025 74 0 0.0 0.0 0.00 0.08 0.00 100 1013.2
20260903104539 74 0 0.0 0.0 0.00 0.08 0.00 100 1013.1
20260903104019 75 0 0.0 0.0 0.00 0.08 0.00 100 1013.0
20260903103518 75 0 0.0 0.0 0.00 0.08 0.00 100 1013.1
20260903103042 75 0 0.0 0.0 0.00 0.08 0.00 100 1013.0
20260903102520 75 0 0.0 0.0 0.00 0.08 0.00 100 1013.0
20260903102020 75 0 0.0 0.0 0.00 0.08 0.00 100 1013.0
20260903101541 75 0 0.0 0.0 0.00 0.08 0.00 100 1013.0
20260903101017 75 0 0.0 0.0 0.00 0.08 0.00 100 1012.9
20260903100517 75 0 0.0 0.0 0.00 0.08 0.00 100 1012.9
20260903100045 75 0 0.0 0.0 0.00 0.08 0.00 100 1012.8
20260903095520 75 0 0.0 0.0 0.00 0.08 0.00 100 1012.8
20260903095021 75 0 0.0 0.0 0.00 0.08 0.00 100 1012.8
20260903094538 75 0 0.0 0.0 0.00 0.08 0.00 100 1012.7
20260903094020 75 0 0.0 0.0 0.00 0.08 0.00 100 1012.6
20260903093520 75 0 0.0 0.0 0.00 0.08 0.00 100 1012.5
20260903093041 75 0 0.0 0.0 0.00 0.08 0.00 100 1012.6
20260903092522 75 0 0.0 0.0 0.00 0.08 0.00 100 1012.7
20260903092020 75 0 0.0 0.0 0.00 0.08 0.00 100 1012.6
20260903091539 75 0 0.0 0.0 0.00 0.08 0.00 100 1012.5
20260903091016 75 0 0.0 0.0 0.00 0.08 0.00 100 1012.6
20260903090517 75 0 0.0 0.0 0.00 0.08 0.00 100 1012.6
20260903090037 75 0 0.0 0.0 0.00 0.08 0.00 100 1012.6
20260903085520 75 0 0.0 0.0 0.00 0.08 0.00 100 1012.8
20260903085021 75 0 0.0 0.0 0.00 0.08 0.00 100 1012.8
20260903084540 75 0 0.0 0.0 0.00 0.08 0.00 100 1012.8
20260903084022 75 0 0.0 0.0 0.00 0.08 0.00 100 1012.8
20260903083520 76 0 0.0 0.0 0.00 0.08 0.00 100 1012.7
20260903083045 76 0 0.0 0.0 0.00 0.08 0.00 100 1012.7
20260903082518 76 0 0.0 0.0 0.00 0.08 0.00 100 1012.7
20260903082025 76 0 0.0 0.0 0.00 0.08 0.00 100 1012.5
20260903081536 76 0 0.0 0.0 0.00 0.08 0.00 100 1012.6
20260903081020 76 0 0.0 0.0 0.00 0.08 0.00 100 1012.5
20260903080519 76 0 0.0 0.0 0.00 0.08 0.00 100 1012.5
20260903080040 76 0 0.0 0.0 0.00 0.08 0.00 100 1012.5
20260903075521 75 0 0.0 0.0 0.00 0.08 0.00 100 1012.5
20260903075019 75 0 0.0 0.0 0.00 0.08 0.00 100 1012.7
20260903074539 76 0 0.0 0.0 0.00 0.08 0.00 100 1012.7
20260903074019 76 0 0.0 0.0 0.00 0.08 0.00 100 1012.7
20260903073519 75 0 0.0 0.0 0.00 0.08 0.00 100 1012.8
20260903073047 75 0 0.0 0.0 0.00 0.08 0.00 100 1012.7
20260903072519 75 0 0.0 0.0 0.00 0.08 0.00 100 1012.8
20260903072021 75 0 0.0 0.0 0.00 0.08 0.00 100 1012.8
20260903071538 75 0 0.0 0.0 0.00 0.08 0.00 100 1012.9
20260903071020 75 0 0.0 0.0 0.00 0.08 0.00 100 1013.1
20260903070519 75 0 0.0 0.0 0.00 0.08 0.00 100 1013.2
20260903070041 75 0 0.0 0.0 0.00 0.08 0.00 100 1013.0
20260903065519 75 0 0.0 0.0 0.00 0.08 0.00 100 1013.1
20260903065025 76 0 0.0 0.0 0.00 0.08 0.00 100 1013.1
20260903064539 75 0 0.0 0.0 0.00 0.08 0.00 100 1013.2
20260903064021 75 0 0.0 0.0 0.00 0.08 0.00 100 1013.2
20260903063521 75 0 0.0 0.0 0.00 0.08 0.00 100 1013.3
20260903063037 76 0 0.0 0.0 0.00 0.08 0.00 100 1013.3
20260903062520 76 0 0.0 0.0 0.00 0.08 0.00 100 1013.4
20260903062020 76 0 0.0 0.0 0.00 0.08 0.00 100 1013.6
20260903061556 76 0 0.0 0.0 0.00 0.08 0.00 100 1013.7
20260903061022 76 0 0.0 0.0 0.00 0.08 0.00 100 1013.6
20260903060519 76 0 0.0 0.0 0.00 0.08 0.00 100 1013.7
20260903060040 76 0 0.0 0.0 0.00 0.08 0.00 100 1013.7
20260903055519 76 0 0.0 0.0 0.00 0.08 0.00 100 1013.7
20260903055019 76 0 0.0 0.0 0.00 0.08 0.00 100 1013.8
20260903054541 76 0 0.0 0.0 0.00 0.08 0.00 100 1013.8
20260903054021 76 0 0.0 0.0 0.00 0.08 0.00 100 1013.9
20260903053518 76 0 0.0 0.0 0.00 0.08 0.00 100 1014.0
20260903053040 76 0 0.0 0.0 0.00 0.08 0.00 100 1013.9
20260903052519 76 0 0.0 0.0 0.00 0.08 0.00 100 1014.0
20260903052019 76 0 0.0 0.0 0.00 0.08 0.00 100 1014.0
20260903051540 76 0 0.0 0.0 0.00 0.08 0.00 100 1013.9
20260903051021 77 0 0.0 0.0 0.00 0.08 0.00 100 1014.1
20260903050520 77 0 0.0 0.0 0.00 0.08 0.00 100 1014.2
20260903050039 77 0 0.0 0.0 0.00 0.08 0.00 100 1014.2
20260903045520 77 0 0.0 0.0 0.00 0.08 0.00 100 1014.2
20260903045022 77 0 0.0 0.0 0.00 0.08 0.00 100 1014.4
20260903044549 77 0 0.0 0.0 0.00 0.08 0.00 100 1014.4
20260903044022 77 0 0.0 0.0 0.00 0.08 0.00 100 1014.2
20260903043520 77 0 0.0 0.0 0.00 0.08 0.00 100 1014.2
20260903043040 77 0 0.0 0.0 0.00 0.08 0.00 100 1014.2
20260903042524 77 0 0.0 0.0 0.00 0.08 0.00 100 1014.3
20260903042019 77 0 0.0 0.0 0.00 0.08 0.00 100 1014.3
20260903041546 78 0 0.0 0.0 0.00 0.08 0.00 100 1014.4
20260903041019 78 0 0.0 0.0 0.00 0.08 0.00 100 1014.3
20260903040519 78 0 0.0 0.0 0.00 0.08 0.00 100 1014.4
20260903040043 78 0 0.0 0.0 0.00 0.08 0.00 100 1014.4
20260903035520 78 0 0.0 0.0 0.00 0.08 0.08 100 1014.5
20260903035022 78 0 0.0 0.0 0.00 0.08 0.08 100 1014.5
20260903034540 78 0 0.0 0.0 0.00 0.08 0.08 100 1014.4
20260903034022 78 0 0.0 0.0 0.00 0.08 0.08 100 1014.5
20260903033519 78 0 0.0 0.0 0.00 0.08 0.08 100 1014.4
20260903033039 78 0 0.0 0.0 0.00 0.08 0.08 100 1014.3
20260903032518 78 0 0.0 0.0 0.00 0.08 0.08 100 1014.3
20260903032018 78 0 0.0 0.0 0.00 0.08 0.08 100 1014.4
20260903031535 78 0 0.0 0.0 0.00 0.08 0.08 100 1014.4
20260903031020 78 0 0.0 0.0 0.00 0.08 0.08 100 1014.5
20260903030520 78 0 0.0 0.0 0.00 0.08 0.08 100 1014.6
20260903030037 78 0 0.0 0.0 0.00 0.08 0.08 100 1014.6
20260903025526 78 0 0.0 0.0 0.00 0.08 0.08 100 1014.6
20260903025019 78 0 0.0 0.0 0.00 0.08 0.08 100 1014.6
20260903024543 78 0 0.0 0.0 0.00 0.08 0.08 100 1014.5
20260903024020 78 0 0.0 0.0 0.00 0.08 0.08 100 1014.5
20260903023519 78 0 0.0 0.0 0.00 0.08 0.08 100 1014.6
20260903023043 78 0 0.0 0.0 0.00 0.08 0.08 100 1014.6
20260903022519 78 0 0.0 0.0 0.00 0.08 0.08 100 1014.6
20260903022021 78 0 0.0 0.0 0.00 0.08 0.08 100 1014.6
20260903021539 78 0 0.0 0.0 0.00 0.08 0.08 99 1014.5
20260903021021 79 0 0.0 0.0 0.00 0.08 0.08 99 1014.5
20260903020522 79 0 0.0 0.0 0.00 0.08 0.08 99 1014.4
20260903020048 79 0 0.0 0.0 0.00 0.08 0.08 99 1014.5
20260903015520 79 0 0.0 2.0 0.00 0.08 0.08 99 1014.5
20260903015020 79 0 0.0 2.0 0.00 0.08 0.08 99 1014.4
20260903014554 79 0 0.0 2.0 0.00 0.08 0.08 98 1014.4
20260903014026 79 0 0.0 0.0 0.00 0.08 0.08 98 1014.3
20260903013519 79 0 0.0 0.0 0.00 0.08 0.08 98 1014.2
20260903013051 79 0 0.0 0.0 0.00 0.08 0.08 98 1014.3
20260903012522 79 0 0.0 0.0 0.00 0.08 0.08 97 1014.4
20260903012020 79 0 0.0 0.0 0.00 0.08 0.08 97 1014.3
20260903011602 79 0 0.0 0.0 0.00 0.08 0.08 96 1014.4
20260903011026 79 0 0.0 0.0 0.00 0.08 0.08 96 1014.4
20260903010520 80 0 0.0 1.0 0.00 0.08 0.08 96 1014.5
20260903010058 80 0 0.0 1.0 0.00 0.08 0.08 96 1014.4
20260903005521 80 299 0.0 2.0 0.00 0.08 0.08 96 1014.5
20260903005020 80 0 0.0 2.0 0.00 0.08 0.08 95 1014.4
20260903004540 80 319 0.0 3.0 0.00 0.08 0.08 95 1014.5
20260903004020 80 0 0.0 3.0 0.00 0.08 0.08 96 1014.5
20260903003519 80 15 0.0 3.0 0.00 0.08 0.08 97 1014.4
20260903003040 80 0 0.0 0.0 0.00 0.08 0.08 97 1014.4
20260903002522 80 0 0.0 0.0 0.00 0.08 0.08 96 1014.4
20260903002023 80 0 0.0 0.0 0.00 0.08 0.08 96 1014.3
20260903001552 80 0 0.0 0.0 0.00 0.08 0.08 96 1014.3
20260903001021 80 0 0.0 0.0 0.00 0.08 0.08 96 1014.1
20260903000520 80 0 0.0 0.0 0.00 0.08 0.08 96 1014.2
20260903000046 81 0 0.0 0.0 0.00 0.08 0.08 95 1013.9
20260902235520 81 0 0.0 0.0 0.00 0.08 0.08 95 1014.0
20260902235019 81 0 0.0 0.0 0.00 0.08 0.08 95 1014.0
20260902234543 81 0 0.0 0.0 0.00 0.08 0.08 94 1014.0
20260902234020 81 0 0.0 2.0 0.00 0.08 0.08 94 1014.1
20260902233521 81 0 0.0 2.0 0.00 0.08 0.08 94 1014.2
20260902233040 81 0 0.0 3.0 0.00 0.08 0.08 94 1014.2
20260902232521 81 0 0.0 3.0 0.00 0.08 0.08 94 1014.0
20260902232021 81 0 0.0 2.0 0.00 0.08 0.08 94 1013.9
20260902231544 82 0 0.0 2.0 0.00 0.08 0.08 94 1013.8
20260902231024 82 0 0.0 2.0 0.00 0.08 0.08 94 1013.7
20260902230523 82 0 0.0 2.0 0.00 0.08 0.08 94 1013.7
20260902230051 82 0 0.0 2.0 0.00 0.08 0.08 94 1013.7
20260902225524 82 356 0.0 2.0 0.00 0.08 0.08 94 1013.5
20260902225020 82 1 0.0 2.0 0.00 0.08 0.08 94 1013.5
20260902224542 82 0 0.0 2.0 0.00 0.08 0.08 94 1013.4
20260902224021 82 0 0.0 3.0 0.00 0.08 0.08 94 1013.3
20260902223519 82 0 0.0 3.0 0.00 0.08 0.08 94 1013.1
20260902223042 82 170 0.0 1.0 0.00 0.08 0.08 93 1013.1
20260902222519 82 0 0.0 1.0 0.00 0.08 0.08 93 1013.2
20260902222024 82 0 0.0 2.0 0.00 0.08 0.08 92 1013.1
20260902221536 82 345 0.0 4.0 0.00 0.08 0.08 92 1013.1
20260902221022 82 0 0.0 4.0 0.00 0.08 0.08 91 1013.3
20260902220520 82 0 0.0 4.0 0.00 0.08 0.08 91 1013.2
20260902220042 83 1 0.0 4.0 0.00 0.08 0.08 91 1013.2
20260902215520 83 4 0.0 4.0 0.00 0.08 0.08 90 1013.4
20260902215022 84 0 0.0 6.0 0.00 0.08 0.08 90 1013.4
20260902214545 84 1 0.0 6.0 0.00 0.08 0.08 89 1013.3
20260902214018 84 328 1.0 6.0 0.00 0.08 0.08 89 1013.2
20260902213518 84 0 0.0 6.0 0.00 0.08 0.08 89 1013.2